Location: Pandora
(40.9481°N, 83.9611°W)
Time: 13:23:48
(UTC-04:00)

Nauka - Pass Details

Date: 21 September 2021
Orbit: 417 x 423 km, 51.6° (Epoch: 26 October)

Event Time Altitude Azimuth Distance (km) Brightness Sun altitude
Rises 21:51:50 0° 293° (WNW) 2,363 ? -26.0°
Reaches altitude 10° 21:54:43 10° 320° (NW) 1,502 ? -26.5°
Enters shadow 21:56:19 14° 349° (NNW) 1,289 ? -26.8°
